Location: New Canada
(47.1017°N, 68.5042°W)
Time: 12:44:37
(UTC+00:00)

SEEDS - Visible Passes

Search period start: 28 March 2023 00:00
Search period end: 07 April 2023 00:00
Orbit: 573 x 588 km, 97.7° (Epoch: 27 March)

Date Brightness Start Highest point End Pass type
(mag) Time Alt. Az. Time Alt. Az. Time Alt. Az.
28 Mar ? 07:22:36 10° ENE 07:24:36 13° E 07:26:36 10° ESE visible
28 Mar ? 08:56:14 10° N 09:00:22 65° WNW 09:04:05 12° SSW visible
29 Mar ? 07:27:22 10° NE 07:29:46 15° E 07:32:09 10° SE visible
29 Mar ? 09:01:22 10° N 09:05:28 57° WNW 09:09:25 11° SSW visible
30 Mar ? 07:32:12 10° NE 07:34:54 17° E 07:37:37 10° SE visible
30 Mar ? 09:06:29 10° N 09:10:32 50° WNW 09:14:34 10° SSW visible
31 Mar ? 07:37:03 10° NE 07:40:02 19° E 07:42:59 10° SE visible
31 Mar ? 09:11:36 10° N 09:15:35 44° WNW 09:19:33 10° SW visible
01 Apr ? 07:41:56 10° NE 07:45:08 21° E 07:48:18 10° SE visible
01 Apr ? 09:16:42 10° N 09:20:37 39° WNW 09:24:30 10° SW visible
02 Apr ? 07:46:49 10° NE 07:50:12 23° E 07:53:34 10° SSE visible
02 Apr ? 09:21:49 10° N 09:25:37 35° WNW 09:29:25 10° SW visible
03 Apr ? 07:51:43 10° NE 07:55:15 26° E 07:58:46 10° SSE visible
03 Apr ? 09:26:54 10° N 09:30:36 31° WNW 09:34:17 10° SW visible
04 Apr ? 07:56:37 10° NE 08:00:17 29° E 08:03:56 10° SSE visible
04 Apr ? 09:31:59 10° N 09:35:34 28° WNW 09:39:08 10° SW visible
05 Apr ? 08:01:30 10° NNE 08:05:18 33° E 08:09:04 10° SSE visible
06 Apr ? 08:06:24 10° NNE 08:10:17 37° E 08:14:08 10° SSE visible
